カタログに戻る

STARLINK-33836

運用中通信VLEO
NORAD 63642·PAYLOAD·🇺🇸 United States

打ち上げ Apr 25, 2025 から Cape Canaveral Space Force Station

Loading…

次のパス (今後24時間)

TLE

最新Source: CelesTrak SupGP

元期: Sep 14, 2026, 21:23 UTC

1 63642C 25083J   26257.89145833  .00026486  00000+0  95951-3 0  2576
2 63642  43.0039  16.9655 0001451 273.9487 306.4995 15.27559347    10

AllMySatでSTARLINK-33836をリアルタイム追跡

Download on the App Store